Location: Brookfield Village
(37.7352°N, 122.1861°W)
Time: 02:00:02
(UTC+00:00)

BlueWalker 3 - Visible Passes

Search period start: 16 October 2024 00:00
Search period end: 26 October 2024 00:00
Orbit: 472 x 484 km, 53.2° (Epoch: 15 October)

Date Brightness Start Highest point End Pass type
(mag) Time Alt. Az. Time Alt. Az. Time Alt. Az.
17 Oct 4.1 13:45:31 10° NNW 13:48:10 18° NNE 13:50:48 10° ENE visible
18 Oct 4.3 13:17:02 10° NNW 13:19:31 17° NNE 13:21:59 10° ENE visible
19 Oct 4.4 12:48:35 10° NNW 12:50:50 16° NNE 12:53:09 10° ENE visible
20 Oct 4.4 12:21:20 14° N 12:22:08 14° NNE 12:24:14 10° ENE visible
20 Oct 2.0 13:56:56 10° NW 14:00:38 76° NE 14:04:18 10° SE visible
21 Oct 4.8 11:54:09 13° NE 11:54:09 13° NE 11:55:17 10° NE visible
21 Oct 2.1 13:28:21 10° NW 13:31:58 65° NE 13:35:37 10° ESE visible
22 Oct 2.3 13:01:14 23° NNW 13:03:16 56° NE 13:06:53 10° ESE visible
23 Oct 2.5 12:34:12 46° NNE 12:34:32 48° NE 12:38:06 10° ESE visible
24 Oct 3.8 12:07:15 27° E 12:07:15 27° E 12:09:16 10° ESE visible
24 Oct 3.4 13:41:27 13° W 13:43:28 20° SW 13:46:11 10° S visible
25 Oct 5.2 11:40:23 10° ESE 11:40:23 10° ESE 11:40:25 10° ESE visible
25 Oct 3.1 13:14:36 23° SW 13:14:45 23° SW 13:17:41 10° S visible
